Location: Bergnershof
(48.9468°N, 10.9431°E)
Time: 10:01:45
(UTC+00:00)

Cosmos 2084 Rocket - Pass Details

Date: 03 March 2021
Orbit: 528 x 653 km, 62.8° (Epoch: 12 April)

Event Time Altitude Azimuth Distance (km) Brightness Sun altitude
Rises 18:23:44 0° 314° (NW) 2,805 7.8 -14.0°
Reaches altitude 10° 18:25:59 10° 309° (NW) 1,922 7.0 -14.4°
Maximum altitude 18:30:12 50° 234° (SW) 773 4.3 -15.1°
Drops below altitude 10° 18:34:33 10° 159° (SSE) 1,985 5.9 -15.8°
Enters shadow 18:35:01 - 158° (SSE) 2,168 6.1 -15.9°
